����������;��������(kWh)
2017-11-20 00:00;79,15
2017-11-20 00:15;77,7
2017-11-20 00:30;81,65
2017-11-20 00:45;80
2017-11-20 01:00;79,8
2017-11-20 01:15;77,7
2017-11-20 01:30;76,15
2017-11-20 01:45;76,05
2017-11-20 02:00;77,1
2017-11-20 02:15;75,2
2017-11-20 02:30;75,6
2017-11-20 02:45;77,4
2017-11-20 03:00;75,55
2017-11-20 03:15;76,05
2017-11-20 03:30;77,05
2017-11-20 03:45;76,05
2017-11-20 04:00;76,6
2017-11-20 04:15;74,8
2017-11-20 04:30;74,95
2017-11-20 04:45;75,3
2017-11-20 05:00;71,05
2017-11-20 05:15;72,75
2017-11-20 05:30;74,4
2017-11-20 05:45;72,85
2017-11-20 06:00;73,95
2017-11-20 06:15;74,85
2017-11-20 06:30;77,1
2017-11-20 06:45;78,4
2017-11-20 07:00;76,6
2017-11-20 07:15;75,15
2017-11-20 07:30;73,4
2017-11-20 07:45;78,45
2017-11-20 08:00;78,6
2017-11-20 08:15;82,25
2017-11-20 08:30;87
2017-11-20 08:45;90,35
2017-11-20 09:00;97,05
2017-11-20 09:15;101,85
2017-11-20 09:30;102,95
2017-11-20 09:45;106,95
2017-11-20 10:00;116,65
2017-11-20 10:15;115,35
2017-11-20 10:30;117,55
2017-11-20 10:45;125,45
2017-11-20 11:00;128,3
2017-11-20 11:15;130,55
2017-11-20 11:30;136,45
2017-11-20 11:45;142,35
2017-11-20 12:00;148,7
2017-11-20 12:15;150,75
2017-11-20 12:30;166,25
2017-11-20 12:45;168,95
2017-11-20 13:00;168,15
2017-11-20 13:15;172,9
2017-11-20 13:30;167,3
2017-11-20 13:45;162,25
2017-11-20 14:00;161,4
2017-11-20 14:15;160,3
2017-11-20 14:30;158
2017-11-20 14:45;163,1
2017-11-20 15:00;156,3
2017-11-20 15:15;151
2017-11-20 15:30;148
2017-11-20 15:45;135,35
2017-11-20 16:00;131,35
2017-11-20 16:15;129,3
2017-11-20 16:30;132
2017-11-20 16:45;132,35
2017-11-20 17:00;129,85
2017-11-20 17:15;128,25
2017-11-20 17:30;133,4
2017-11-20 17:45;131,7
2017-11-20 18:00;134,4
2017-11-20 18:15;134,6
2017-11-20 18:30;129,35
2017-11-20 18:45;129,9
2017-11-20 19:00;131,75
2017-11-20 19:15;128,6
2017-11-20 19:30;125,5
2017-11-20 19:45;122,6
2017-11-20 20:00;114,05
2017-11-20 20:15;108,4
2017-11-20 20:30;111,4
2017-11-20 20:45;109
2017-11-20 21:00;107,25
2017-11-20 21:15;95,7
2017-11-20 21:30;94,05
2017-11-20 21:45;90,4
2017-11-20 22:00;86,6
2017-11-20 22:15;86,5
2017-11-20 22:30;88,8
2017-11-20 22:45;85,6
2017-11-20 23:00;84,95
2017-11-20 23:15;82,4
2017-11-20 23:30;80,4
2017-11-20 23:45;82,8
2017-11-21 00:00;78,6
2017-11-21 00:15;79,45
2017-11-21 00:30;76,85
2017-11-21 00:45;78,85
2017-11-21 01:00;78,75
2017-11-21 01:15;76,05
2017-11-21 01:30;76,6
2017-11-21 01:45;75,55
2017-11-21 02:00;75,15
2017-11-21 02:15;76,65
2017-11-21 02:30;74,35
2017-11-21 02:45;77,25
2017-11-21 03:00;75,8
2017-11-21 03:15;75,4
2017-11-21 03:30;75,15
2017-11-21 03:45;76,55
2017-11-21 04:00;75,95
2017-11-21 04:15;75,55
2017-11-21 04:30;75,65
2017-11-21 04:45;73,7
2017-11-21 05:00;75,7
2017-11-21 05:15;73,9
2017-11-21 05:30;72,5
2017-11-21 05:45;77,05
2017-11-21 06:00;77,2
2017-11-21 06:15;76,75
2017-11-21 06:30;82,3
2017-11-21 06:45;79,05
2017-11-21 07:00;79,95
2017-11-21 07:15;75,1
2017-11-21 07:30;72,4
2017-11-21 07:45;72,25
2017-11-21 08:00;71,2
2017-11-21 08:15;69,35
2017-11-21 08:30;75,55
2017-11-21 08:45;75,55
2017-11-21 09:00;77,5
2017-11-21 09:15;77,5
2017-11-21 09:30;74,1
2017-11-21 09:45;76,4
2017-11-21 10:00;78,2
2017-11-21 10:15;74,05
2017-11-21 10:30;77,35
2017-11-21 10:45;75,65
2017-11-21 11:00;82,5
2017-11-21 11:15;85,75
2017-11-21 11:30;82,85
2017-11-21 11:45;83,55
2017-11-21 12:00;86,2
2017-11-21 12:15;86,85
2017-11-21 12:30;87,2
2017-11-21 12:45;87,45
2017-11-21 13:00;84,8
2017-11-21 13:15;85,25
2017-11-21 13:30;89,9
2017-11-21 13:45;86,3
2017-11-21 14:00;89,2
2017-11-21 14:15;88,55
2017-11-21 14:30;89,35
2017-11-21 14:45;91,85
2017-11-21 15:00;90,45
2017-11-21 15:15;94,55
2017-11-21 15:30;87,85
2017-11-21 15:45;89,3
2017-11-21 16:00;91,05
2017-11-21 16:15;90,6
2017-11-21 16:30;88,2
2017-11-21 16:45;87,05
2017-11-21 17:00;85,8
2017-11-21 17:15;93,6
2017-11-21 17:30;94,05
2017-11-21 17:45;98,75
2017-11-21 18:00;99
2017-11-21 18:15;100,5
2017-11-21 18:30;101,8
2017-11-21 18:45;100,85
2017-11-21 19:00;100,8
2017-11-21 19:15;95,55
2017-11-21 19:30;93,75
2017-11-21 19:45;92,7
2017-11-21 20:00;93,85
2017-11-21 20:15;92,4
2017-11-21 20:30;92,55
2017-11-21 20:45;97,1
2017-11-21 21:00;94
2017-11-21 21:15;92,55
2017-11-21 21:30;91,05
2017-11-21 21:45;88,85
2017-11-21 22:00;83,5
2017-11-21 22:15;79,05
2017-11-21 22:30;80,2
2017-11-21 22:45;81,4
2017-11-21 23:00;80,15
2017-11-21 23:15;81,5
2017-11-21 23:30;81,6
2017-11-21 23:45;78,75
2017-11-22 00:00;77,7
2017-11-22 00:15;79,5
2017-11-22 00:30;77,4
2017-11-22 00:45;79,55
2017-11-22 01:00;79,5
2017-11-22 01:15;78,25
2017-11-22 01:30;78,8
2017-11-22 01:45;75,9
2017-11-22 02:00;75,75
2017-11-22 02:15;77,35
2017-11-22 02:30;75,05
2017-11-22 02:45;76,45
2017-11-22 03:00;75,4
2017-11-22 03:15;74,8
2017-11-22 03:30;77,1
2017-11-22 03:45;75,1
2017-11-22 04:00;74,65
2017-11-22 04:15;75,8
2017-11-22 04:30;74,95
2017-11-22 04:45;77,95
2017-11-22 05:00;78,05
2017-11-22 05:15;78,1
2017-11-22 05:30;83,8
2017-11-22 05:45;81,2
2017-11-22 06:00;83,25
2017-11-22 06:15;86,85
2017-11-22 06:30;90,6
2017-11-22 06:45;87,6
2017-11-22 07:00;86,25
2017-11-22 07:15;85,6
2017-11-22 07:30;87,35
2017-11-22 07:45;92,25
2017-11-22 08:00;97,15
2017-11-22 08:15;99,5
2017-11-22 08:30;105,3
2017-11-22 08:45;114,95
2017-11-22 09:00;123,65
2017-11-22 09:15;137,6
2017-11-22 09:30;142,55
2017-11-22 09:45;147,6
2017-11-22 10:00;152,3
2017-11-22 10:15;158,95
2017-11-22 10:30;167,45
2017-11-22 10:45;166,75
2017-11-22 11:00;173,85
2017-11-22 11:15;172,45
2017-11-22 11:30;178,1
2017-11-22 11:45;180,7
2017-11-22 12:00;177
2017-11-22 12:15;185,8
2017-11-22 12:30;207,6
2017-11-22 12:45;212,7
2017-11-22 13:00;197,95
2017-11-22 13:15;184
2017-11-22 13:30;178,95
2017-11-22 13:45;178,6
2017-11-22 14:00;171,45
2017-11-22 14:15;170,9
2017-11-22 14:30;160,45
2017-11-22 14:45;166,7
2017-11-22 15:00;163,3
2017-11-22 15:15;152,1
2017-11-22 15:30;155,65
2017-11-22 15:45;156
2017-11-22 16:00;150,65
2017-11-22 16:15;144,8
2017-11-22 16:30;141,7
2017-11-22 16:45;147,7
2017-11-22 17:00;144,2
2017-11-22 17:15;138,3
2017-11-22 17:30;138,85
2017-11-22 17:45;146,8
2017-11-22 18:00;149,75
2017-11-22 18:15;147,3
2017-11-22 18:30;141,8
2017-11-22 18:45;138,75
2017-11-22 19:00;140,05
2017-11-22 19:15;132,6
2017-11-22 19:30;132,15
2017-11-22 19:45;126,4
2017-11-22 20:00;121,45
2017-11-22 20:15;120,75
2017-11-22 20:30;115,1
2017-11-22 20:45;115,45
2017-11-22 21:00;110,25
2017-11-22 21:15;105,35
2017-11-22 21:30;106,85
2017-11-22 21:45;103,65
2017-11-22 22:00;101,8
2017-11-22 22:15;108,95
2017-11-22 22:30;106,7
2017-11-22 22:45;100,85
2017-11-22 23:00;105,1
2017-11-22 23:15;100,35
2017-11-22 23:30;95,4
2017-11-22 23:45;92,45
2017-11-23 00:00;90,8
2017-11-23 00:15;94,2
2017-11-23 00:30;93,6
2017-11-23 00:45;93,4
2017-11-23 01:00;92,8
2017-11-23 01:15;93,95
2017-11-23 01:30;93,05
2017-11-23 01:45;95,8
2017-11-23 02:00;94,35
2017-11-23 02:15;94,2
2017-11-23 02:30;94,55
2017-11-23 02:45;90,15
2017-11-23 03:00;91,2
2017-11-23 03:15;94,4
2017-11-23 03:30;89,25
2017-11-23 03:45;94,3
2017-11-23 04:00;91,3
2017-11-23 04:15;90,65
2017-11-23 04:30;94,75
2017-11-23 04:45;90,55
2017-11-23 05:00;93,15
2017-11-23 05:15;93,15
2017-11-23 05:30;90,45
2017-11-23 05:45;89,8
2017-11-23 06:00;90,95
2017-11-23 06:15;88,5
2017-11-23 06:30;94,15
2017-11-23 06:45;91,1
2017-11-23 07:00;95,3
2017-11-23 07:15;100,65
2017-11-23 07:30;151,3
2017-11-23 07:45;140,6
2017-11-23 08:00;110,85
2017-11-23 08:15;105,7
2017-11-23 08:30;119,4
2017-11-23 08:45;143,05
2017-11-23 09:00;140,4
2017-11-23 09:15;150,25
2017-11-23 09:30;152,1
2017-11-23 09:45;148,2
2017-11-23 10:00;158,9
2017-11-23 10:15;154,6
2017-11-23 10:30;154,95
2017-11-23 10:45;155,7
2017-11-23 11:00;165,65
2017-11-23 11:15;160,6
2017-11-23 11:30;174,85
2017-11-23 11:45;168,7
2017-11-23 12:00;180,05
2017-11-23 12:15;164,15
2017-11-23 12:30;176,9
2017-11-23 12:45;173,65
2017-11-23 13:00;165,45
2017-11-23 13:15;177,2
2017-11-23 13:30;173,65
2017-11-23 13:45;182,4
2017-11-23 14:00;172,7
2017-11-23 14:15;176,05
2017-11-23 14:30;172,15
2017-11-23 14:45;166,8
2017-11-23 15:00;173,15
2017-11-23 15:15;165,75
2017-11-23 15:30;163,35
2017-11-23 15:45;152,35
2017-11-23 16:00;152,85
2017-11-23 16:15;150,15
2017-11-23 16:30;142,1
2017-11-23 16:45;143,6
2017-11-23 17:00;140,45
2017-11-23 17:15;146,05
2017-11-23 17:30;150,65
2017-11-23 17:45;154,45
2017-11-23 18:00;155,55
2017-11-23 18:15;147,15
2017-11-23 18:30;149,75
2017-11-23 18:45;135,95
2017-11-23 19:00;139,55
2017-11-23 19:15;133,15
2017-11-23 19:30;126,7
2017-11-23 19:45;127,2
2017-11-23 20:00;121,2
2017-11-23 20:15;113,4
2017-11-23 20:30;117,3
2017-11-23 20:45;114,8
2017-11-23 21:00;114,45
2017-11-23 21:15;110,05
2017-11-23 21:30;106,9
2017-11-23 21:45;108,6
2017-11-23 22:00;105,15
2017-11-23 22:15;109,95
2017-11-23 22:30;108,85
2017-11-23 22:45;101,2
2017-11-23 23:00;106,7
2017-11-23 23:15;94,9
2017-11-23 23:30;94,35
2017-11-23 23:45;86,85
2017-11-24 00:00;82,45
2017-11-24 00:15;83,9
2017-11-24 00:30;84,05
2017-11-24 00:45;83,95
2017-11-24 01:00;104,7
2017-11-24 01:15;90,9
2017-11-24 01:30;85,2
2017-11-24 01:45;88,55
2017-11-24 02:00;87,1
2017-11-24 02:15;85,35
2017-11-24 02:30;88,8
2017-11-24 02:45;86
2017-11-24 03:00;87,55
2017-11-24 03:15;86,85
2017-11-24 03:30;85,6
2017-11-24 03:45;86,95
2017-11-24 04:00;87,1
2017-11-24 04:15;87,75
2017-11-24 04:30;86,2
2017-11-24 04:45;85,1
2017-11-24 05:00;84,7
2017-11-24 05:15;87,75
2017-11-24 05:30;88,05
2017-11-24 05:45;90,9
2017-11-24 06:00;90,2
2017-11-24 06:15;86,3
2017-11-24 06:30;95,8
2017-11-24 06:45;93,9
2017-11-24 07:00;98,6
2017-11-24 07:15;102,25
2017-11-24 07:30;140,55
2017-11-24 07:45;116,9
2017-11-24 08:00;113,4
2017-11-24 08:15;112,8
2017-11-24 08:30;119,5
2017-11-24 08:45;129,75
2017-11-24 09:00;140,5
2017-11-24 09:15;138,75
2017-11-24 09:30;140,75
2017-11-24 09:45;145,55
2017-11-24 10:00;142,7
2017-11-24 10:15;149,85
2017-11-24 10:30;148,2
2017-11-24 10:45;150,55
2017-11-24 11:00;158,2
2017-11-24 11:15;176,3
2017-11-24 11:30;167,1
2017-11-24 11:45;167,7
2017-11-24 12:00;163,1
2017-11-24 12:15;165,35
2017-11-24 12:30;161,9
2017-11-24 12:45;170,45
2017-11-24 13:00;164,85
2017-11-24 13:15;165,8
2017-11-24 13:30;167,65
2017-11-24 13:45;167,95
2017-11-24 14:00;162,45
2017-11-24 14:15;160,55
2017-11-24 14:30;156,3
2017-11-24 14:45;151,3
2017-11-24 15:00;152,75
2017-11-24 15:15;150,9
2017-11-24 15:30;141,95
2017-11-24 15:45;138,05
2017-11-24 16:00;139,5
2017-11-24 16:15;132,85
2017-11-24 16:30;132,9
2017-11-24 16:45;126,05
2017-11-24 17:00;124,2
2017-11-24 17:15;126,3
2017-11-24 17:30;131,9
2017-11-24 17:45;142,15
2017-11-24 18:00;142
2017-11-24 18:15;142
2017-11-24 18:30;137,65
2017-11-24 18:45;132,7
2017-11-24 19:00;132,85
2017-11-24 19:15;135,05
2017-11-24 19:30;123,95
2017-11-24 19:45;118,95
2017-11-24 20:00;115,4
2017-11-24 20:15;110,85
2017-11-24 20:30;111,6
2017-11-24 20:45;109,55
2017-11-24 21:00;109,55
2017-11-24 21:15;102,25
2017-11-24 21:30;99,25
2017-11-24 21:45;101,05
2017-11-24 22:00;92,7
2017-11-24 22:15;99,2
2017-11-24 22:30;98,8
2017-11-24 22:45;96,9
2017-11-24 23:00;107,85
2017-11-24 23:15;95,65
2017-11-24 23:30;94,55
2017-11-24 23:45;96,75
2017-11-25 00:00;93,5
2017-11-25 00:15;96,9
2017-11-25 00:30;90,9
2017-11-25 00:45;89,4
2017-11-25 01:00;91,7
2017-11-25 01:15;88,95
2017-11-25 01:30;94,8
2017-11-25 01:45;90,05
2017-11-25 02:00;90
2017-11-25 02:15;92,6
2017-11-25 02:30;90,05
2017-11-25 02:45;92,75
2017-11-25 03:00;92,45
2017-11-25 03:15;89,55
2017-11-25 03:30;93,15
2017-11-25 03:45;89,5
2017-11-25 04:00;90,75
2017-11-25 04:15;92,55
2017-11-25 04:30;88,95
2017-11-25 04:45;90,15
2017-11-25 05:00;90,35
2017-11-25 05:15;86,25
2017-11-25 05:30;88,75
2017-11-25 05:45;84,4
2017-11-25 06:00;85,65
2017-11-25 06:15;88,95
2017-11-25 06:30;88,2
2017-11-25 06:45;88,9
2017-11-25 07:00;88,5
2017-11-25 07:15;86,55
2017-11-25 07:30;85
2017-11-25 07:45;81,45
2017-11-25 08:00;84,7
2017-11-25 08:15;83,05
2017-11-25 08:30;80,15
2017-11-25 08:45;83,45
2017-11-25 09:00;80,85
2017-11-25 09:15;81,55
2017-11-25 09:30;80
2017-11-25 09:45;78,85
2017-11-25 10:00;80,1
2017-11-25 10:15;76,6
2017-11-25 10:30;77,35
2017-11-25 10:45;79,5
2017-11-25 11:00;77,75
2017-11-25 11:15;76,4
2017-11-25 11:30;83
2017-11-25 11:45;80,8
2017-11-25 12:00;79,1
2017-11-25 12:15;82
2017-11-25 12:30;79,25
2017-11-25 12:45;78,65
2017-11-25 13:00;82,4
2017-11-25 13:15;80
2017-11-25 13:30;81,4
2017-11-25 13:45;82,2
2017-11-25 14:00;78,8
2017-11-25 14:15;78,2
2017-11-25 14:30;78,1
2017-11-25 14:45;82,8
2017-11-25 15:00;80,6
2017-11-25 15:15;81,15
2017-11-25 15:30;83
2017-11-25 15:45;82,65
2017-11-25 16:00;85,4
2017-11-25 16:15;83,2
2017-11-25 16:30;86,05
2017-11-25 16:45;86,85
2017-11-25 17:00;89,85
2017-11-25 17:15;95
2017-11-25 17:30;98,05
2017-11-25 17:45;101,9
2017-11-25 18:00;100,55
2017-11-25 18:15;100,25
2017-11-25 18:30;100
2017-11-25 18:45;101,85
2017-11-25 19:00;105
2017-11-25 19:15;101,4
2017-11-25 19:30;102,8
2017-11-25 19:45;99,85
2017-11-25 20:00;98,8
2017-11-25 20:15;97,9
2017-11-25 20:30;99,6
2017-11-25 20:45;98,9
2017-11-25 21:00;99,15
2017-11-25 21:15;100,7
2017-11-25 21:30;99,2
2017-11-25 21:45;97,6
2017-11-25 22:00;92,35
2017-11-25 22:15;99,6
2017-11-25 22:30;97,15
2017-11-25 22:45;93,05
2017-11-25 23:00;100,5
2017-11-25 23:15;89,9
2017-11-25 23:30;88,45
2017-11-25 23:45;87,3
2017-11-26 00:00;86,65
2017-11-26 00:15;89,85
2017-11-26 00:30;86,2
2017-11-26 00:45;88,3
2017-11-26 01:00;86,65
2017-11-26 01:15;86,6
2017-11-26 01:30;84,1
2017-11-26 01:45;82,05
2017-11-26 02:00;83,55
2017-11-26 02:15;83,1
2017-11-26 02:30;81,45
2017-11-26 02:45;82,65
2017-11-26 03:00;83,4
2017-11-26 03:15;81,6
2017-11-26 03:30;84,55
2017-11-26 03:45;82,1
2017-11-26 04:00;81,1
2017-11-26 04:15;82,15
2017-11-26 04:30;81,9
2017-11-26 04:45;79,5
2017-11-26 05:00;80,75
2017-11-26 05:15;82,5
2017-11-26 05:30;80,7
2017-11-26 05:45;81,65
2017-11-26 06:00;85,2
2017-11-26 06:15;81,05
2017-11-26 06:30;85,65
2017-11-26 06:45;86,95
2017-11-26 07:00;82,5
2017-11-26 07:15;83,25
2017-11-26 07:30;80,2
2017-11-26 07:45;78,05
2017-11-26 08:00;77,9
2017-11-26 08:15;73,75
2017-11-26 08:30;76,4
2017-11-26 08:45;76,4
2017-11-26 09:00;75
2017-11-26 09:15;73,05
2017-11-26 09:30;72,2
2017-11-26 09:45;74,55
2017-11-26 10:00;72,4
2017-11-26 10:15;74,6
2017-11-26 10:30;73,05
2017-11-26 10:45;74,5
2017-11-26 11:00;75,25
2017-11-26 11:15;76,5
2017-11-26 11:30;74,95
2017-11-26 11:45;73,05
2017-11-26 12:00;73,35
2017-11-26 12:15;78,15
2017-11-26 12:30;77,85
2017-11-26 12:45;78,05
2017-11-26 13:00;78
2017-11-26 13:15;76
2017-11-26 13:30;80,65
2017-11-26 13:45;81,4
2017-11-26 14:00;85,05
2017-11-26 14:15;86,35
2017-11-26 14:30;88,85
2017-11-26 14:45;89,9
2017-11-26 15:00;92,15
2017-11-26 15:15;91,35
2017-11-26 15:30;88,9
2017-11-26 15:45;85,6
2017-11-26 16:00;87,9
2017-11-26 16:15;87,8
2017-11-26 16:30;88,8
2017-11-26 16:45;90,35
2017-11-26 17:00;88,9
2017-11-26 17:15;98,55
2017-11-26 17:30;103,2
2017-11-26 17:45;105,45
2017-11-26 18:00;105,25
2017-11-26 18:15;103,4
2017-11-26 18:30;102,75
2017-11-26 18:45;100,25
2017-11-26 19:00;103
2017-11-26 19:15;105,25
2017-11-26 19:30;109,35
2017-11-26 19:45;108
2017-11-26 20:00;105,5
2017-11-26 20:15;104,2
2017-11-26 20:30;101,4
2017-11-26 20:45;100
2017-11-26 21:00;98,4
2017-11-26 21:15;94,4
2017-11-26 21:30;94,65
2017-11-26 21:45;94,25
2017-11-26 22:00;87,8
2017-11-26 22:15;97,85
2017-11-26 22:30;97,3
2017-11-26 22:45;94,8
2017-11-26 23:00;101,35
2017-11-26 23:15;93,2
2017-11-26 23:30;93
2017-11-26 23:45;90,2

